Home > Weather > Hollywood > Past weeks

Flag for U.S.A. Weather for the Past 2 Weeks in Hollywood, Florida, U.S.A.

Now
61 °F

Passing clouds.


Feels Like: 61 °F
Forecast: 53 / 74 °F
Wind: 5 mph from North

Location: Fort Lauderdale / Hollywood International Airport

Current Time: Feb 11, 2016 at 9:18:39 PM

Latest Report: Feb 11, 2016 at 7:53 PM


Visibility: 10 mi

Pressure: 30.27 "Hg

Humidity: 60%

Dew point: 47 °F

Location of HollywoodLocation

Historic Weather in Hollywood — Graph

°F

Hollywood Temperature Yesterday

Maximum temperature yesterday: 62 °F (at 11:53 AM)
Minimum temperature yesterday: 53 °F (at 11:53 PM)
Average temperature yesterday: 58 °F

High & Low Weather Summary for the Past Weeks

 TemperatureHumidityPressure
High81 °F (Feb 2, 12:53 PM)100% (Jan 27, 11:53 PM)30.34 "Hg (Jan 27, 11:53 PM)
Low48 °F (Feb 8, 6:53 AM)25% (Feb 11, 2:53 PM)29.77 "Hg (Jan 28, 6:53 PM)
Average66 °F72%30.07 "Hg
* Reported Jan 27 7:53 PM — Feb 11 7:53 PM, Hollywood, Weather by CustomWeather, © 2016

Note: Actual official high and low records may vary slightly from our data, if they occured in-between our weather recording intervals... More about our weather records

Advertising

Hollywood Weather History for the Previous 24 Hours

 ConditionsComfort  
Time TempWeatherWind HumidityBarometerVisibility
7:53 PM
Thu, Feb 11
61 °FPassing clouds.5 mph60%30.27 "Hg10 mi
6:53 PM62 °FPassing clouds.3 mph54%30.27 "Hg10 mi
5:53 PM64 °FBroken clouds.8 mph49%30.26 "Hg10 mi
3:53 PM68 °FScattered clouds.9 mph30%30.24 "Hg10 mi
2:53 PM69 °FPassing clouds.10 mph25%30.24 "Hg10 mi
1:53 PM69 °FScattered clouds.7 mph32%30.25 "Hg10 mi
12:53 PM67 °FScattered clouds.7 mph33%30.29 "Hg10 mi
11:53 AM64 °FBroken clouds.9 mph30%30.32 "Hg10 mi
10:53 AM57 °FBroken clouds.8 mph41%30.34 "Hg10 mi
9:53 AM53 °FScattered clouds.8 mph52%30.34 "Hg10 mi
8:53 AM52 °FScattered clouds.12 mph69%30.33 "Hg10 mi
7:53 AM50 °FScattered clouds.8 mph74%30.30 "Hg10 mi
6:53 AM48 °FPassing clouds.5 mph77%30.28 "Hg10 mi
5:53 AM48 °FPassing clouds.6 mph74%30.26 "Hg10 mi
4:53 AM49 °FPassing clouds.6 mph71%30.24 "Hg10 mi
3:53 AM49 °FPassing clouds.6 mph71%30.23 "Hg10 mi
2:53 AM50 °FPassing clouds.7 mph68%30.24 "Hg10 mi
1:53 AM50 °FPassing clouds.6 mph66%30.25 "Hg10 mi
12:53 AM51 °FPassing clouds.6 mph66%30.25 "Hg10 mi
11:53 PM
Wed, Feb 10
53 °FPassing clouds.7 mph69%30.26 "Hg10 mi
10:53 PM55 °FPassing clouds.7 mph67%30.27 "Hg10 mi
9:53 PM57 °FPassing clouds.15 mph64%30.25 "Hg10 mi
Weather by CustomWeather, © 2016

See weather overviewHow to use our weather pages